This demonstration page uses our WeatherBlox Daily Observations layout. Learn more.

Left ArrowRight Arrow

Hourly Observations for April 19, 2017

Temp ( °F °C ) Dew Point ( °F °C ) Humidity (%) Winds ( mph kmh ) Pressure ( in mb ) Visibility ( mi km ) Precip ( " mm )
12:53 am 00:53 Partly Cloudy 56 13.3 49 9.4 77 77 NNW 6 9 30.10 1019 10 16 0.00 0.00
1:53 am 01:53 Mostly Cloudy 54 12.2 49 9.4 83 83 NNW 5 7 30.11 1020 10 16 0.00 0.00
2:53 am 02:53 Mostly Cloudy 53 11.7 49 9.4 86 86 Calm 30.11 1020 10 16 0.00 0.00
3:53 am 03:53 Partly Cloudy 52 11.1 49 9.4 89 89 Calm 30.12 1020 10 16 0.00 0.00
4:53 am 04:53 Cloudy 52 11.1 49 9.4 89 89 SW 3 6 30.13 1020 10 16 0.00 0.00
5:53 am 05:53 Mostly Cloudy 52 11.1 49 9.4 89 89 undefined N/A 30.13 1020 10 16 0.00 0.00
6:53 am 06:53 Mostly Cloudy 52 11.1 49 9.4 89 89 E 3 6 30.14 1021 10 16 0.00 0.00
7:53 am 07:53 Cloudy 53 11.7 50 10 89 89 SE 6 9 30.17 1022 10 16 0.00 0.00
8:53 am 08:53 Partly Cloudy 56 13.3 48 8.9 75 75 SSE 7 11 30.16 1021 10 16 0.00 0.00
9:53 am 09:53 Mostly Cloudy 59 15 45 7.2 60 60 S 9 15 30.17 1022 10 16 0.00 0.00
10:53 am 10:53 Sunny 60 15.6 45 7.2 58 58 SE 10 17 30.17 1022 10 16 0.00 0.00
11:53 am 11:53 Sunny 62 16.7 47 8.3 58 58 SSE 10 17 30.16 1021 10 16 0.00 0.00
12:53 pm 12:53 Sunny 63 17.2 42 5.6 47 47 SSE 20 31 30.15 1021 10 16 0.00 0.00
1:53 pm 13:53 Sunny 63 17.2 42 5.6 47 47 S 13 20 30.14 1021 10 16 0.00 0.00
2:53 pm 14:53 Mostly Sunny 63 17.2 45 7.2 52 52 S 12 19 30.14 1021 10 16 0.00 0.00
3:53 pm 15:53 Mostly Cloudy 63 17.2 44 6.7 50 50 S 14 22 30.12 1020 10 16 0.00 0.00
4:46 pm 16:46 Cloudy with Nearby Thunderstorms 57 13.9 49 9.4 74 74 WNW 5 7 30.12 1020 7 11 0.01 0.25
4:53 pm 16:53 Cloudy with Thunderstorms 57 13.9 50 10 78 78 undefined N/A 30.11 1020 9 14 0.02 0.51
5:17 pm 17:17 Cloudy with Heavy Rain 53 11.7 50 10 89 89 W 7 11 30.15 1021 3 5 0.09 2.29
5:53 pm 17:53 Cloudy 54 12.2 52 11.1 93 93 NNW 6 9 30.10 1019 10 16 0.15 3.81
6:53 pm 18:53 Cloudy with Light Rain 54 12.2 52 11.1 93 93 NNW 6 9 30.11 1020 4 6 0.02 0.51
7:16 pm 19:16 Cloudy with Rain 53 11.7 52 11.1 96 96 VRB 5 7 30.12 1020 2 3 0.05 1.27
7:33 pm 19:33 Cloudy with Light Rain 54 12.2 51 10.6 90 90 WSW 5 7 30.12 1020 7 11 0.10 2.54
7:53 pm 19:53 Cloudy with Light Rain 53 11.7 50 10 89 89 WSW 5 7 30.12 1020 9 14 0.11 2.79
8:53 pm 20:53 Cloudy with Light Rain 52 11.1 51 10.6 97 97 E 5 7 30.12 1020 10 16 0.04 1.02
9:53 pm 21:53 Cloudy 52 11.1 50 10 93 93 S 3 6 30.16 1021 10 16 0.00 0.03
10:22 pm 22:22 Cloudy 52 11 50 10 94 94 Calm 30.18 1022 10 16 0.00 0.00
10:53 pm 22:53 Cloudy 52 11.1 50 10 93 93 W 3 6 30.17 1022 10 16 0.00 0.00
11:12 pm 23:12 Cloudy 52 11 50 10 94 94 NW 5 7 30.18 1022 10 16 0.00 0.00
11:53 pm 23:53 Cloudy 52 11.1 49 9.4 89 89 Calm 30.18 1022 10 16 0.00 0.00

Powered by AerisWeather